#timestamp,LO_Frequency,Hit,StdDev 
1643173215.2,286047013.7,N
1643173235.0,286047017.1,N
1643173235.9,286047017.1,N
1643173255.7,286047019.7,N
1643173275.6,286047015.2,N
1643173295.4,286047019.9,N
1643173315.3,286047020.1,N
1643173335.1,286047016.5,N
1643173355.8,286047015.4,Y
1643173375.7,286047001.2,P
1643173395.5,286047003.4,N
1643173415.4,286046996.9,N
1643173435.2,286046994.2,N
1643173455.0,286046993.4,N
1643173455.9,286046993.4,N
1643173475.8,286046994.7,N
1643173495.6,286046997.6,N
1643173515.4,286046996.3,N
1643173535.3,286046996.6,N
1643173555.1,286046991.7,N
1643173575.9,286046993.5,N
1643173595.7,286046993.6,N
1643173615.5,286046997.4,N
1643173635.4,286047001.5,N
1643173655.2,286047007.1,N
1643173675.0,286046992.2,N
1643173675.9,286046992.2,N
1643173695.8,286046992.7,N
1643173715.6,286046985.7,N
1643173735.5,286046991.3,N
1643173755.3,286046993.9,N
1643173775.1,286046997.2,N
1643173795.9,286046997.3,N
1643173815.7,286047013.1,N
1643173835.5,286046993.5,N
1643173855.4,286046997.0,N
1643173875.2,286047001.1,N
1643173895.1,286046997.4,N
1643173896.0,286046997.4,N
1643173915.8,286046995.7,N
1643173935.6,286046998.6,N
1643173955.5,286046994.8,N
1643173975.3,286046990.3,N
1643173995.1,286046988.6,N
1643174015.9,286046990.4,N
1643174035.7,286046985.8,N
1643174055.6,286046996.3,N
1643174075.4,286046992.1,N
1643174095.2,286046993.8,N
1643174115.1,286046999.8,N
1643174116.0,286046999.8,N
1643174135.8,286046997.0,N
1643174155.6,286046995.3,N
1643174175.5,286046997.6,N
1643174195.3,286047001.4,N
1643174215.2,286046982.9,Y
1643174235.9,286046999.8,P
1643174255.7,286047007.2,P
1643174275.6,286047000.0,N
1643174295.4,286047003.0,N
1643174315.2,286046993.7,N
1643174335.1,286046995.2,N
1643174336.0,286046995.2,N
1643174355.8,286046994.8,N
1643174375.7,286046994.8,N
1643174395.5,286046988.7,N
1643174415.3,286046989.7,N
1643174435.2,286046992.8,N
1643174455.0,286046990.7,N
1643174455.9,286046990.7,N
1643174475.7,286046988.8,N
1643174495.6,286046994.0,N
1643174515.4,286046995.8,N
1643174535.3,286046996.5,N
1643174555.1,286046998.5,N
1643174556.0,286046998.5,N
1643174575.8,286047000.2,N
1643174595.7,286047001.2,N
1643174615.5,286046997.9,N
1643174635.3,286046999.5,N
1643174655.2,286046993.9,N
1643174675.0,286046999.6,N
1643174675.9,286046999.6,N
1643174695.8,286046997.5,N
1643174715.6,286046997.6,N
1643174735.4,286046996.5,N
1643174755.3,286046996.1,N
1643174775.1,286046993.4,N
1643174795.8,286046995.2,N
1643174815.7,286046992.0,N
1643174835.5,286046991.1,N
1643174855.4,286046993.7,N
1643174875.2,286046998.0,N
1643174895.0,286047004.9,N
1643174895.9,286047004.9,N
1643174915.8,286047005.8,N
1643174935.6,286047001.3,N
1643174955.4,286047005.7,N
1643174975.3,286047007.4,N
1643174995.1,286047002.6,N
1643175015.9,286046996.7,N
1643175035.7,286047000.9,N
1643175055.5,286047004.0,N
1643175075.4,286047005.3,N
1643175095.2,286047004.9,N
1643175115.0,286047002.5,N
1643175116.0,286047002.5,N
1643175135.8,286046994.0,N
1643175155.6,286046989.4,N
1643175175.5,286046990.7,N
1643175195.3,286046996.6,N
1643175215.1,286046995.8,N
1643175235.9,286046998.8,N
1643175255.7,286047000.8,N
1643175275.6,286047003.0,N
1643175295.4,286047000.1,N
1643175315.2,286047007.5,N
1643175335.1,286047005.4,N
1643175336.0,286047005.4,N
1643175355.8,286047001.8,N
1643175375.6,286047005.5,N
1643175395.5,286047003.0,N
1643175415.3,286047004.8,N
1643175435.2,286047003.2,N
1643175455.9,286047010.3,N
1643175475.7,286047004.7,N
1643175495.6,286047005.5,N
1643175515.4,286047008.9,N
1643175535.2,286047010.2,N
1643175555.1,286047010.8,N
1643175556.0,286047010.8,N
1643175575.8,286047010.1,N
1643175595.7,286047003.5,N
1643175615.5,286047004.1,N
1643175635.3,286047004.7,N
1643175655.2,286047005.6,N
1643175675.0,286047004.8,N
1643175675.9,286047004.8,N
1643175695.8,286047004.1,N
1643175715.6,286047003.7,N
1643175735.4,286046998.3,N
1643175755.3,286046999.4,N
1643175775.1,286046994.0,N
1643175795.8,286046995.1,N
1643175815.7,286046998.9,N
1643175835.5,286046995.5,N
1643175855.4,286046998.6,N
1643175875.2,286047000.5,N
1643175895.0,286047005.5,N
1643175895.9,286047005.5,N
1643175915.8,286047015.4,Y
1643175935.6,286047009.4,P
1643175955.5,286047004.6,N
1643175975.3,286047002.5,N
1643175995.1,286046999.0,N
1643176015.9,286047003.2,N
1643176035.7,286046997.8,N
1643176055.5,286046997.1,N
1643176075.4,286046995.6,N
1643176095.2,286046996.0,N
1643176115.1,286046990.3,N
1643176116.0,286046990.3,N
1643176135.8,286046996.6,N
1643176155.6,286046996.3,N
1643176175.5,286046996.6,N
1643176195.3,286047004.4,N
1643176215.1,286047005.6,N
1643176235.9,286047016.3,Y
1643176255.7,286047017.5,P
1643176275.6,286047016.2,N
1643176295.4,286047021.9,N
1643176315.2,286047008.7,N
1643176335.1,286047007.1,N
1643176336.0,286047007.1,N
1643176355.8,286047011.0,N
1643176375.7,286047016.7,N
1643176395.5,286047014.4,N
1643176415.3,286047012.2,N
1643176435.2,286047003.8,N
1643176455.0,286047003.9,N
1643176455.9,286047003.9,N
1643176475.7,286047006.3,N
1643176495.6,286047008.3,N
1643176515.4,286047012.5,N
1643176535.3,286047010.7,N
1643176555.1,286047006.2,N
1643176556.0,286047006.2,N
1643176575.8,286047006.6,N
1643176595.7,286047002.9,N
1643176615.5,286047002.9,N
1643176635.3,286047002.4,N
1643176655.2,286047007.2,N
1643176675.0,286047010.6,N
1643176675.9,286047010.6,N
1643176695.8,286047012.5,N
1643176715.6,286047018.0,Y
1643176735.4,286047007.4,P
1643176755.3,286047012.2,P
1643176775.1,286047008.4,P
1643176795.8,286047008.7,Y
